• en France
  • Liste des pays
  • À 7 jours
  • Température de l'eau
  • Carte satellitaire
  • Carte météo
  • Widgets météo
  • user-avatar
    Se connecter

    Météo par heure à Bondoukou

    Ce jour, 27 Mai, Dimanche

    Heure Température Précipitation Vent Pression Humidité
    00:00 +24°C° 0,2 mm 2 m/s 729 mmHg 94%
    01:00 +24°C° 0,1 mm 2 m/s 729 mmHg 95%
    02:00 +24°C° 0,1 mm 2 m/s 729 mmHg 95%
    03:00 +24°C° 0,1 mm 2 m/s 728 mmHg 96%
    04:00 +24°C° 0 mm 2 m/s 728 mmHg 96%
    05:00 +24°C° 0 mm 3 m/s 728 mmHg 96%
    06:00 +24°C° 0 mm 3 m/s 729 mmHg 96%
    07:00 +25°C° 0 mm 3 m/s 729 mmHg 92%
    08:00 +26°C° 0 mm 3 m/s 730 mmHg 88%
    09:00 +27°C° 0 mm 3 m/s 730 mmHg 84%
    10:00 +28°C° 0 mm 3 m/s 730 mmHg 77%
    11:00 +30°C° 0 mm 3 m/s 730 mmHg 71%
    12:00 +31°C° 0 mm 3 m/s 729 mmHg 65%
    13:00 +32°C° 0,9 mm 2 m/s 729 mmHg 64%
    14:00 +32°C° 0,9 mm 2 m/s 728 mmHg 63%
    15:00 +32°C° 0,9 mm 1 m/s 728 mmHg 63%
    16:00 +30°C° 3,1 mm 1 m/s 728 mmHg 72%
    17:00 +28°C° 3,1 mm 1 m/s 728 mmHg 81%
    18:00 +26°C° 3,1 mm 1 m/s 728 mmHg 91%
    19:00 +26°C° 0,2 mm 2 m/s 729 mmHg 92%
    20:00 +25°C° 0,2 mm 2 m/s 729 mmHg 94%
    21:00 +25°C° 0,2 mm 2 m/s 730 mmHg 95%
    22:00 +24°C° 0 mm 2 m/s 730 mmHg 96%
    23:00 +24°C° 0 mm 2 m/s 730 mmHg 96%

    Demain, 28 Mai, Lundi

    Heure Température Précipitation Vent Pression Humidité
    00:00 +24°C° 0 mm 2 m/s 730 mmHg 97%
    01:00 +24°C° 0 mm 2 m/s 729 mmHg 96%
    02:00 +24°C° 0 mm 2 m/s 729 mmHg 96%
    03:00 +24°C° 0 mm 3 m/s 728 mmHg 96%
    04:00 +24°C° 0,1 mm 2 m/s 729 mmHg 95%
    05:00 +24°C° 0,1 mm 2 m/s 729 mmHg 95%
    06:00 +24°C° 0,1 mm 2 m/s 730 mmHg 95%
    07:00 +25°C° 0,1 mm 2 m/s 730 mmHg 91%
    08:00 +26°C° 0,1 mm 2 m/s 731 mmHg 87%
    09:00 +27°C° 0,1 mm 2 m/s 731 mmHg 83%
    10:00 +29°C° 0,1 mm 2 m/s 731 mmHg 75%
    11:00 +30°C° 0,1 mm 2 m/s 731 mmHg 67%
    12:00 +33°C° 0,1 mm 3 m/s 730 mmHg 59%
    13:00 +33°C° 0,1 mm 3 m/s 730 mmHg 58%
    14:00 +34°C° 0,1 mm 2 m/s 729 mmHg 57%
    15:00 +34°C° 0,1 mm 2 m/s 728 mmHg 55%
    16:00 +32°C° 0 mm 2 m/s 728 mmHg 60%
    17:00 +31°C° 0 mm 2 m/s 728 mmHg 65%
    18:00 +30°C° 0 mm 2 m/s 728 mmHg 70%
    19:00 +29°C° 0 mm 2 m/s 728 mmHg 74%
    20:00 +28°C° 0 mm 2 m/s 729 mmHg 78%
    21:00 +27°C° 0 mm 2 m/s 730 mmHg 82%
    22:00 +26°C° 0 mm 2 m/s 730 mmHg 85%
    23:00 +25°C° 0 mm 2 m/s 730 mmHg 87%

    Après-demain, 29 Mai, Mardi

    Heure Température Précipitation Vent Pression Humidité
    00:00 +25°C° 0 mm 2 m/s 730 mmHg 89%
    01:00 +25°C° 0 mm 2 m/s 730 mmHg 91%
    02:00 +24°C° 0 mm 2 m/s 729 mmHg 93%
    03:00 +24°C° 0 mm 2 m/s 729 mmHg 94%
    04:00 +24°C° 0 mm 2 m/s 730 mmHg 93%
    05:00 +24°C° 0 mm 2 m/s 730 mmHg 92%
    06:00 +25°C° 0 mm 2 m/s 730 mmHg 91%
    07:00 +25°C° 0 mm 2 m/s 731 mmHg 87%
    08:00 +26°C° 0 mm 2 m/s 731 mmHg 83%
    09:00 +27°C° 0 mm 3 m/s 731 mmHg 79%
    10:00 +29°C° 0 mm 3 m/s 731 mmHg 72%
    11:00 +31°C° 0 mm 3 m/s 730 mmHg 64%
    12:00 +34°C° 0 mm 3 m/s 730 mmHg 57%
    13:00 +34°C° 0 mm 2 m/s 729 mmHg 56%
    14:00 +34°C° 0 mm 2 m/s 728 mmHg 54%
    15:00 +35°C° 0 mm 2 m/s 727 mmHg 53%
    16:00 +32°C° 0,3 mm 2 m/s 727 mmHg 60%
    17:00 +31°C° 0,3 mm 2 m/s 727 mmHg 67%
    18:00 +30°C° 0,3 mm 1 m/s 727 mmHg 73%
    19:00 +29°C° 0 mm 2 m/s 728 mmHg 77%
    20:00 +28°C° 0 mm 2 m/s 728 mmHg 80%
    21:00 +26°C° 0 mm 2 m/s 729 mmHg 84%
    22:00 +26°C° 0,1 mm 2 m/s 729 mmHg 85%
    23:00 +26°C° 0,1 mm 3 m/s 729 mmHg 87%

    30 Mai, Mercredi

    Heure Température Précipitation Vent Pression Humidité
    00:00 +25°C° 0,1 mm 3 m/s 728 mmHg 88%
    01:00 +25°C° 0,2 mm 3 m/s 728 mmHg 90%
    02:00 +25°C° 0,2 mm 2 m/s 728 mmHg 92%
    03:00 +24°C° 0,2 mm 2 m/s 728 mmHg 94%
    04:00 +24°C° 0,3 mm 2 m/s 728 mmHg 95%
    05:00 +24°C° 0,3 mm 2 m/s 728 mmHg 96%
    06:00 +23°C° 0,3 mm 2 m/s 729 mmHg 97%
    07:00 +24°C° 0 mm 2 m/s 729 mmHg 92%
    08:00 +25°C° 0 mm 3 m/s 730 mmHg 88%
    09:00 +27°C° 0 mm 3 m/s 730 mmHg 83%
    10:00 +29°C° 0 mm 3 m/s 730 mmHg 74%
    11:00 +31°C° 0 mm 3 m/s 729 mmHg 65%
    12:00 +34°C° 0 mm 2 m/s 729 mmHg 56%
    13:00 +35°C° 0 mm 2 m/s 728 mmHg 53%
    14:00 +36°C° 0 mm 2 m/s 728 mmHg 50%
    15:00 +36°C° 0 mm 2 m/s 727 mmHg 47%
    16:00 +35°C° 0 mm 2 m/s 727 mmHg 53%
    17:00 +32°C° 0 mm 1 m/s 727 mmHg 59%
    18:00 +31°C° 0 mm 1 m/s 727 mmHg 65%
    19:00 +29°C° 0,5 mm 2 m/s 728 mmHg 73%
    20:00 +28°C° 0,5 mm 2 m/s 728 mmHg 81%
    21:00 +26°C° 0,5 mm 2 m/s 729 mmHg 90%
    22:00 +26°C° 0 mm 2 m/s 729 mmHg 92%
    23:00 +25°C° 0 mm 2 m/s 729 mmHg 94%

    31 Mai, Jeudi

    Heure Température Précipitation Vent Pression Humidité
    00:00 +25°C° 0 mm 2 m/s 729 mmHg 96%
    01:00 +24°C° 0 mm 2 m/s 728 mmHg 96%
    02:00 +24°C° 0 mm 2 m/s 728 mmHg 96%
    03:00 +24°C° 0 mm 2 m/s 728 mmHg 96%
    04:00 +24°C° 0,1 mm 2 m/s 728 mmHg 96%
    05:00 +23°C° 0,1 mm 2 m/s 729 mmHg 96%
    06:00 +23°C° 0,1 mm 2 m/s 729 mmHg 96%
    07:00 +24°C° 0 mm 2 m/s 729 mmHg 90%
    08:00 +26°C° 0 mm 3 m/s 730 mmHg 84%
    09:00 +27°C° 0 mm 3 m/s 730 mmHg 77%
    10:00 +29°C° 0 mm 3 m/s 730 mmHg 70%
    11:00 +31°C° 0 mm 3 m/s 730 mmHg 63%
    12:00 +34°C° 0 mm 3 m/s 729 mmHg 55%
    13:00 +34°C° 0 mm 3 m/s 729 mmHg 54%
    14:00 +35°C° 0 mm 2 m/s 728 mmHg 52%
    15:00 +35°C° 0 mm 2 m/s 727 mmHg 50%
    16:00 +34°C° 0,3 mm 2 m/s 727 mmHg 57%
    17:00 +31°C° 0,3 mm 2 m/s 728 mmHg 63%
    18:00 +30°C° 0,3 mm 1 m/s 728 mmHg 70%
    19:00 +29°C° 0,4 mm 2 m/s 728 mmHg 76%
    20:00 +27°C° 0,4 mm 2 m/s 729 mmHg 81%
    21:00 +26°C° 0,4 mm 2 m/s 730 mmHg 87%
    22:00 +26°C° 0 mm 2 m/s 730 mmHg 88%
    23:00 +25°C° 0 mm 2 m/s 729 mmHg 90%

    1 Juin, Vendredi

    Heure Température Précipitation Vent Pression Humidité
    00:00 +25°C° 0 mm 3 m/s 729 mmHg 91%
    01:00 +25°C° 0 mm 3 m/s 729 mmHg 92%
    02:00 +24°C° 0 mm 2 m/s 729 mmHg 93%
    03:00 +24°C° 0 mm 2 m/s 728 mmHg 94%
    04:00 +24°C° 0 mm 2 m/s 729 mmHg 94%
    05:00 +24°C° 0 mm 2 m/s 730 mmHg 94%
    06:00 +24°C° 0 mm 2 m/s 731 mmHg 94%
    07:00 +25°C° 0 mm 2 m/s 731 mmHg 90%
    08:00 +25°C° 0 mm 2 m/s 731 mmHg 87%
    09:00 +26°C° 0 mm 2 m/s 731 mmHg 83%
    10:00 +28°C° 0 mm 2 m/s 731 mmHg 77%
    11:00 +30°C° 0 mm 2 m/s 730 mmHg 70%
    12:00 +31°C° 0 mm 2 m/s 730 mmHg 63%
    13:00 +32°C° 0 mm 2 m/s 729 mmHg 59%
    14:00 +34°C° 0 mm 2 m/s 728 mmHg 54%
    15:00 +35°C° 0 mm 1 m/s 728 mmHg 50%
    16:00 +33°C° 0 mm 1 m/s 728 mmHg 55%
    17:00 +32°C° 0 mm 1 m/s 728 mmHg 60%
    18:00 +31°C° 0 mm 1 m/s 728 mmHg 64%
    19:00 +30°C° 0 mm 1 m/s 729 mmHg 68%
    20:00 +29°C° 0 mm 1 m/s 729 mmHg 71%
    21:00 +27°C° 0 mm 1 m/s 730 mmHg 74%
    22:00 +27°C° 0 mm 2 m/s 730 mmHg 75%
    23:00 +27°C° 0 mm 2 m/s 729 mmHg 76%
    Voir plus